"Pseudo-MPEC" for P1184H5

Created 2020 Oct 26 16:07:19 UT using Find_Orb

Click here for an explanation of pseudo-MPECs

 
 Astrometry: 
     P1184H5  C2020 10 154g'8:rmLt7^PcIqsv.)-jpNNK^94MMV.?pZ3B.$Z9gAstrometryF51
     P1184H5  C2020 10 15)0:redacted;ZrDA:ojnuNn4=u;s*5ieMfH]Pb=I,9eGb0;]^dKUF51
     P1184H5  C2020 10 15_ANCVqbXclick75^kU`N+IFTU_tVG*L+B60xOQs-Rhere[?CJX4%F51
     P1184H5  C2020 10 15bdg.?wmmSow%TsodqERrfor#^-explanationC'W!o6sWa@s^gfkF51

Station data:
(F51) Pan-STARRS 1, Haleakala  (N20.707235 W156.255910)  US/Hawaii.
   Observers N. Primak, A. Schultz, S. Watters, J. Thiel, T. Goggia. Measurer
   PS1 Science Consortium. 1.8-m Ritchey-Chrétien + CCD.

Orbital elements:  P1184H5
   Perihelion 2020 May 24.858798 +/- 167 TT = 20:36:40 (JD 2458994.358798)
Epoch 2020 Oct 15.0 TT = JDT 2459137.5   Earth MOID: 0.0017   AutoNEOCP
M 125.10176402 +/- 100              (J2000 ecliptic)
n   0.87397452 +/- 0.453            Peri.  312.75108 +/- 60
a   1.08343667 +/- 0.374            Node   300.34807 +/- 80
e   0.0804527 +/- 0.239             Incl.    1.24746 +/- 70
P   1.13/411.90d           H 25.3   G  0.15   U 12.2  SR
q 0.99627124 +/- 0.763    Q 1.17060210 +/- 18.9
From 4 observations 2020 Oct. 15 (57.1 min); mean residual 0".07
Residuals in arcseconds: 
201015 F51  .09+  .05-    201015 F51  .00   .03+    
201015 F51  .14-  .06+    201015 F51  .04+  .04-    

Ephemerides (geocentric):
Date (UTC) HH   RA              Dec         delta   r     elong  mag " sig PA
---- -- -- --  -------------   -----------  ------ ------ -----  --- ---- ---
2020 10 26 16  02 21 53.801   +23 45 53.35  .15756 1.1486 168.2 22.3  36d 159
2020 10 26 17  02 21 47.009   +23 45 15.20  .15758 1.1486 168.2 22.3  36d 159
2020 10 26 18  02 21 40.220   +23 44 36.99  .15761 1.1486 168.3 22.3  36d 159
2020 10 26 19  02 21 33.433   +23 43 58.74  .15763 1.1487 168.3 22.3  36d 159
2020 10 26 20  02 21 26.648   +23 43 20.43  .15766 1.1487 168.3 22.3  36d 159
2020 10 26 21  02 21 19.866   +23 42 42.07  .15768 1.1487 168.4 22.3  36d 159
2020 10 26 22  02 21 13.085   +23 42 03.66  .15771 1.1488 168.4 22.3  36d 159
2020 10 26 23  02 21 06.307   +23 41 25.20  .15773 1.1488 168.5 22.3  36d 159
2020 10 27 00  02 20 59.532   +23 40 46.70  .15776 1.1489 168.5 22.3  36d 159
2020 10 27 01  02 20 52.758   +23 40 08.14  .15778 1.1489 168.6 22.3  37d 159
2020 10 27 02  02 20 45.988   +23 39 29.53  .15781 1.1489 168.6 22.3  37d 159
2020 10 27 03  02 20 39.219   +23 38 50.88  .15783 1.1490 168.7 22.3  37d 159
2020 10 27 04  02 20 32.453   +23 38 12.17  .15786 1.1490 168.7 22.3  37d 159
2020 10 27 05  02 20 25.690   +23 37 33.42  .15789 1.1490 168.7 22.3  37d 159
2020 10 27 06  02 20 18.929   +23 36 54.62  .15791 1.1491 168.8 22.3  37d 159
2020 10 27 07  02 20 12.171   +23 36 15.76  .15794 1.1491 168.8 22.3  37d 159
2020 10 27 08  02 20 05.415   +23 35 36.87  .15797 1.1491 168.9 22.3  37d 159
2020 10 27 09  02 19 58.662   +23 34 57.92  .15799 1.1492 168.9 22.3  37d 159
2020 10 27 10  02 19 51.912   +23 34 18.92  .15802 1.1492 168.9 22.3  37d 159
2020 10 27 11  02 19 45.164   +23 33 39.88  .15805 1.1492 169.0 22.3  37d 159
2020 10 27 12  02 19 38.419   +23 33 00.79  .15808 1.1493 169.0 22.3  38d 159
2020 10 27 13  02 19 31.677   +23 32 21.66  .15810 1.1493 169.1 22.3  38d 159
2020 10 27 14  02 19 24.938   +23 31 42.47  .15813 1.1493 169.1 22.3  38d 159
2020 10 27 15  02 19 18.201   +23 31 03.24  .15816 1.1494 169.1 22.3  38d 159
2020 10 27 16  02 19 11.468   +23 30 23.97  .15819 1.1494 169.2 22.3  38d 159
2020 10 27 17  02 19 04.737   +23 29 44.64  .15822 1.1494 169.2 22.3  38d 159
2020 10 27 18  02 18 58.009   +23 29 05.27  .15825 1.1495 169.3 22.3  38d 159
2020 10 27 19  02 18 51.284   +23 28 25.86  .15827 1.1495 169.3 22.3  38d 159
2020 10 27 20  02 18 44.562   +23 27 46.40  .15830 1.1495 169.3 22.3  38d 159
2020 10 27 21  02 18 37.843   +23 27 06.89  .15833 1.1496 169.4 22.3  38d 159
2020 10 27 22  02 18 31.128   +23 26 27.34  .15836 1.1496 169.4 22.3  38d 159
2020 10 27 23  02 18 24.415   +23 25 47.74  .15839 1.1496 169.5 22.2  38d 159
2020 10 28 00  02 18 17.705   +23 25 08.10  .15842 1.1497 169.5 22.2  38d 159
2020 10 28 01  02 18 10.999   +23 24 28.42  .15845 1.1497 169.5 22.2  38d 160
2020 10 28 02  02 18 04.295   +23 23 48.69  .15848 1.1497 169.6 22.2  38d 160
2020 10 28 03  02 17 57.595   +23 23 08.91  .15851 1.1498 169.6 22.2  39d 160
2020 10 28 04  02 17 50.899   +23 22 29.09  .15854 1.1498 169.6 22.2  39d 160
2020 10 28 05  02 17 44.205   +23 21 49.23  .15857 1.1498 169.7 22.2  39d 160
2020 10 28 06  02 17 37.515   +23 21 09.32  .15860 1.1499 169.7 22.2  39d 160
2020 10 28 07  02 17 30.828   +23 20 29.37  .15863 1.1499 169.7 22.2  39d 160
2020 10 28 08  02 17 24.144   +23 19 49.38  .15866 1.1499 169.8 22.2  39d 160
2020 10 28 09  02 17 17.464   +23 19 09.34  .15869 1.1500 169.8 22.2  39d 160
2020 10 28 10  02 17 10.787   +23 18 29.27  .15872 1.1500 169.8 22.2  39d 160
2020 10 28 11  02 17 04.114   +23 17 49.15  .15875 1.1500 169.9 22.2  39d 160
2020 10 28 12  02 16 57.444   +23 17 08.98  .15879 1.1501 169.9 22.2  39d 160
2020 10 28 13  02 16 50.777   +23 16 28.78  .15882 1.1501 169.9 22.2  39d 160
2020 10 28 14  02 16 44.115   +23 15 48.53  .15885 1.1501 170.0 22.2  39d 160
2020 10 28 15  02 16 37.455   +23 15 08.24  .15888 1.1502 170.0 22.2  39d 160